Tel Aviv, Israel

4:35 AM IST on December 13, 2018 (GMT +0200)
Ben Gurion

Weather History for LLBG - December, 2018

Change the Weather History Date:

Thursday, December 6, 2018

  Actual Average Record
Temperature  
Mean Temperature 57 °F -  
Max Temperature 59 °F 64 °F 82 °F (2008)
Min Temperature 55 °F 49 °F 38 °F (2015)
Degree Days  
Heating Degree Days 8    
Growing Degree Days 7 (Base 50)    
Moisture  
Dew Point 52 °F    
Average Humidity 80    
Maximum Humidity 94    
Minimum Humidity 48    
Precipitation  
Precipitation 2.01 in - - ()
Sea Level Pressure  
Sea Level Pressure 29.80 in    
Wind  
Wind Speed 11 mph ()    
Max Wind Speed 18 mph    
Max Gust Speed -    
Visibility 5.2 miles    
Events Rain , Thunderstorm    
Averages and records for this station are not official NWS values.
T = Trace of Precipitation, MM = Missing Value Source: Averaged Metar Reports

Daily Weather History Graph

Daily Weather History Graph

Search for Another Location

Airport or City:

Astronomy

Dec. 06, 2018 Rise Set
Actual Time 6:26 AM IST 4:35 PM IST
Civil Twilight 6:00 AM IST 5:02 PM IST
Nautical Twilight 5:29 AM IST 5:32 PM IST
Astronomical Twilight 5:00 AM IST 6:02 PM IST
Moon 5:18 AM IST (12/6) 4:13 PM IST (12/6)
Length of Visible Light 11h 02m
Length of Day
10h 08m
Waning Crescent, 1% of the Moon is Illuminated
Dec 6
Waning Crescent
Dec 7
New
Dec 15
First Quarter
Dec 22
Full
Dec 29
Last Quarter

Hourly Weather History & Observations

Time (IST) Temp. Dew Point Humidity Pressure Visibility Wind Dir Wind Speed Gust Speed Precip Events Conditions
12:20 AM 62.6 °F 42.8 °F 48% 29.83 in - SE 8.1 mph - N/A   Clear
12:50 AM 62.6 °F 42.8 °F 48% 29.83 in - SSE 8.1 mph - N/A   Clear
1:20 AM 62.6 °F 42.8 °F 48% 29.83 in - South 11.5 mph - N/A   Clear
1:50 AM 62.6 °F 44.6 °F 52% 29.83 in - South 11.5 mph - N/A   Clear
2:20 AM 60.8 °F 44.6 °F 55% 29.80 in - South 13.8 mph - N/A   Clear
2:50 AM 60.8 °F 44.6 °F 55% 29.80 in 6.2 mi SSE 11.5 mph - N/A   Scattered Clouds
3:20 AM 60.8 °F 46.4 °F 59% 29.77 in 6.2 mi SSE 12.7 mph - N/A Rain Light Rain
3:50 AM 60.8 °F 44.6 °F 55% 29.77 in 6.2 mi South 13.8 mph - N/A   Mostly Cloudy
4:20 AM 60.8 °F 46.4 °F 59% 29.77 in 6.2 mi South 15.0 mph - N/A   Scattered Clouds
4:50 AM 60.8 °F 46.4 °F 59% 29.77 in 6.2 mi South 13.8 mph - N/A   Scattered Clouds
5:20 AM 60.8 °F 48.2 °F 63% 29.77 in 6.2 mi South 13.8 mph - N/A   Scattered Clouds
5:50 AM 59.0 °F 48.2 °F 67% 29.77 in 6.2 mi South 13.8 mph - N/A   Partly Cloudy
6:20 AM 60.8 °F 48.2 °F 63% 29.80 in 6.2 mi South 15.0 mph - N/A   Scattered Clouds
6:50 AM 59.0 °F 51.8 °F 77% 29.80 in 6.2 mi South 15.0 mph - N/A   Scattered Clouds
7:20 AM 59.0 °F 51.8 °F 77% 29.80 in 6.2 mi South 16.1 mph - N/A   Scattered Clouds
7:50 AM 59.0 °F 51.8 °F 77% 29.80 in 6.2 mi SSE 13.8 mph - N/A   Scattered Clouds
8:00 AM 60 °F 52 °F 66% 29.81 in 6 mi South 11.2 mph - -   Partly Cloudy
8:20 AM 59.0 °F 53.6 °F 82% 29.80 in 5.6 mi South 16.1 mph - N/A Rain Light Rain
8:50 AM 57.2 °F 53.6 °F 88% 29.83 in 2.5 mi South 13.8 mph - N/A Rain Heavy Rain
9:20 AM 57.2 °F 55.4 °F 94% 29.83 in 1.6 mi SSE 15.0 mph - N/A Rain Heavy Rain
9:50 AM 57.2 °F 55.4 °F 94% 29.83 in 1.2 mi South 16.1 mph - N/A Rain , Thunderstorm Heavy Thunderstorms and Rain
10:20 AM 57.2 °F 55.4 °F 94% 29.83 in 3.7 mi SSW 8.1 mph - N/A Rain Light Rain
10:50 AM 55.4 °F 53.6 °F 94% 29.83 in 3.1 mi SSW 9.2 mph - N/A Rain Rain
11:00 AM 56 °F 54 °F 91% 29.84 in 3 mi SSW 6.7 mph - - Rain Rain
11:20 AM 55.4 °F 53.6 °F 94% 29.83 in 3.7 mi South 8.1 mph - N/A Rain Light Rain
11:50 AM 55.4 °F 53.6 °F 94% 29.80 in 4.3 mi SE 10.4 mph - N/A Rain Light Rain
12:20 PM 57.2 °F 53.6 °F 88% 29.80 in 5.0 mi SSE 11.5 mph - N/A Rain Light Rain
12:50 PM 55.4 °F 53.6 °F 94% 29.80 in 5.6 mi SSE 11.5 mph - N/A Rain Light Rain
1:20 PM 57.2 °F 53.6 °F 88% 29.77 in 6.2 mi SE 11.5 mph - N/A   Mostly Cloudy
1:50 PM 57.2 °F 51.8 °F 82% 29.77 in 6.2 mi ESE 11.5 mph - N/A   Scattered Clouds
2:00 PM 57 °F 53 °F 81% 29.78 in 6 mi SE 11.2 mph - -   Partly Cloudy
2:20 PM 57.2 °F 53.6 °F 88% 29.77 in 5.0 mi ESE 11.5 mph - N/A Rain , Thunderstorm Rain Showers
2:50 PM 57.2 °F 53.6 °F 88% 29.77 in 5.6 mi NNW 11.5 mph - N/A Rain Rain
3:20 PM 57.2 °F 55.4 °F 94% 29.80 in 1.7 mi North 10.4 mph - N/A Rain , Thunderstorm Rain Showers
3:50 PM 55.4 °F 53.6 °F 94% 29.80 in 3.1 mi NE 11.5 mph - N/A Rain , Thunderstorm Thunderstorms and Rain
4:20 PM 55.4 °F 53.6 °F 94% 29.77 in 4.3 mi East 6.9 mph - N/A Rain , Thunderstorm Thunderstorms and Rain
4:50 PM 57.2 °F 55.4 °F 94% 29.77 in 1.2 mi ENE 4.6 mph - N/A Rain Rain Showers
5:20 PM 59.0 °F 53.6 °F 82% 29.77 in 6.2 mi SE 10.4 mph - N/A   Mostly Cloudy
5:50 PM 59.0 °F 55.4 °F 88% 29.77 in 6.2 mi South 13.8 mph - N/A Rain Light Rain
6:20 PM 59.0 °F 55.4 °F 88% 29.80 in 6.2 mi SSE 11.5 mph - N/A   Scattered Clouds
6:50 PM 57.2 °F 53.6 °F 88% 29.77 in 6.2 mi South 16.1 mph - N/A   Scattered Clouds
7:20 PM 57.2 °F 55.4 °F 94% 29.80 in 6.2 mi South 17.3 mph - N/A   Scattered Clouds
7:50 PM 57.2 °F 53.6 °F 88% 29.80 in 6.2 mi South 18.4 mph - N/A Rain Light Rain
8:00 PM 57 °F 54 °F 87% 29.82 in 5 mi South 15.7 mph - - Rain Light Rain
8:20 PM 57.2 °F 53.6 °F 88% 29.80 in 6.2 mi SSE 17.3 mph - N/A   Partly Cloudy
8:50 PM 57.2 °F 53.6 °F 88% 29.80 in 5.0 mi South 17.3 mph - N/A Rain , Thunderstorm Thunderstorms and Rain
9:20 PM 57.2 °F 51.8 °F 82% 29.80 in 6.2 mi WNW 10.4 mph - N/A Thunderstorm Mostly Cloudy
9:50 PM 57.2 °F 53.6 °F 88% 29.80 in 6.2 mi SSW 16.1 mph - N/A Rain Rain
10:20 PM 57.2 °F 55.4 °F 94% 29.80 in 6.2 mi South 13.8 mph - N/A Rain , Thunderstorm Light Rain
10:50 PM 57.2 °F 53.6 °F 88% 29.83 in 5.6 mi WSW 11.5 mph - N/A Rain Rain
11:00 PM 57 °F 54 °F 86% 29.83 in 6 mi SW 6.7 mph - - Rain Rain
11:20 PM 55.4 °F 53.6 °F 94% 29.83 in 6.2 mi SSE 11.5 mph - N/A Rain Light Rain
11:50 PM 55.4 °F 53.6 °F 94% 29.80 in 6.2 mi SE 12.7 mph - N/A   Partly Cloudy